Time,TemperatureF,DewpointF,PressureIn,WindDirection,WindDirectionDegrees,WindSpeedMPH,WindSpeedGustMPH,Humidity,HourlyPrecipIn,Conditions,Clouds,dailyrainin,SoftwareType,DateUTC
2013-07-19 00:01:00,85.6,77.2,30.01,NW,304,1.0,4.0,76,0.00,,,0.00,meteohub,2013-07-19 04:01:00,
2013-07-19 00:02:00,85.6,77.2,30.01,WNW,296,0.0,4.0,76,0.00,,,0.00,meteohub,2013-07-19 04:02:00,
2013-07-19 00:07:00,85.6,77.2,30.01,SE,134,0.0,4.0,76,0.00,,,0.00,meteohub,2013-07-19 04:07:00,
2013-07-19 00:12:00,85.5,77.0,30.01,SE,145,0.0,4.0,76,0.00,,,0.00,meteohub,2013-07-19 04:12:00,
2013-07-19 00:17:00,85.3,77.2,30.01,WNW,301,0.0,4.0,77,0.00,,,0.00,meteohub,2013-07-19 04:17:00,
2013-07-19 00:22:00,85.3,77.2,30.02,NW,319,1.0,4.0,77,0.00,,,0.00,meteohub,2013-07-19 04:22:00,
2013-07-19 00:27:00,85.3,77.2,30.02,WNW,301,0.0,4.0,77,0.00,,,0.00,meteohub,2013-07-19 04:27:00,
2013-07-19 00:32:00,85.3,77.2,30.02,WNW,295,0.0,4.0,77,0.00,,,0.00,meteohub,2013-07-19 04:32:00,
2013-07-19 00:37:00,85.1,77.0,30.02,WNW,288,1.0,3.0,77,0.00,,,0.00,meteohub,2013-07-19 04:37:00,
2013-07-19 00:42:00,85.1,77.0,30.02,South,169,0.0,3.0,77,0.00,,,0.00,meteohub,2013-07-19 04:42:00,
2013-07-19 00:47:00,84.9,77.4,30.02,WNW,290,0.0,3.0,78,0.00,,,0.00,meteohub,2013-07-19 04:47:00,
2013-07-19 00:52:00,84.9,77.4,30.02,WSW,246,4.0,4.0,78,0.00,,,0.00,meteohub,2013-07-19 04:52:00,
2013-07-19 00:57:00,84.9,77.4,30.02,WNW,292,0.0,4.0,78,0.00,,,0.00,meteohub,2013-07-19 04:57:00,
2013-07-19 01:02:00,84.9,77.4,30.02,West,279,0.0,4.0,78,0.00,,,0.00,meteohub,2013-07-19 05:02:00,
2013-07-19 01:07:00,84.9,77.4,30.02,West,266,2.0,4.0,78,0.00,,,0.00,meteohub,2013-07-19 05:07:00,
2013-07-19 01:12:00,84.7,77.5,30.02,WNW,294,0.0,4.0,79,0.00,,,0.00,meteohub,2013-07-19 05:12:00,
2013-07-19 01:17:00,84.7,77.5,30.02,SSE,156,0.0,3.0,79,0.00,,,0.00,meteohub,2013-07-19 05:17:00,
2013-07-19 01:22:00,84.6,77.4,30.01,SSE,160,0.0,3.0,79,0.00,,,0.00,meteohub,2013-07-19 05:22:00,
2013-07-19 01:27:00,84.6,77.7,30.01,SSW,193,0.0,3.0,80,0.00,,,0.00,meteohub,2013-07-19 05:27:00,
2013-07-19 01:32:00,84.4,77.5,30.01,West,266,0.0,1.0,80,0.00,,,0.00,meteohub,2013-07-19 05:32:00,
2013-07-19 01:37:00,84.4,77.5,30.01,West,262,0.0,1.0,80,0.00,,,0.00,meteohub,2013-07-19 05:37:00,
2013-07-19 01:42:00,84.4,77.5,30.01,WNW,293,0.0,1.0,80,0.00,,,0.00,meteohub,2013-07-19 05:42:00,
2013-07-19 01:47:00,84.4,77.5,30.02,WNW,298,3.0,3.0,80,0.00,,,0.00,meteohub,2013-07-19 05:47:00,
2013-07-19 01:52:00,84.2,77.7,30.01,WNW,285,1.0,4.0,81,0.00,,,0.00,meteohub,2013-07-19 05:52:00,
2013-07-19 01:57:00,84.0,77.5,30.02,WNW,295,2.0,5.0,81,0.00,,,0.00,meteohub,2013-07-19 05:57:00,
2013-07-19 02:02:00,84.0,77.5,30.01,WNW,294,1.0,5.0,81,0.00,,,0.00,meteohub,2013-07-19 06:02:00,
2013-07-19 02:07:00,84.0,77.5,30.01,WNW,283,0.0,5.0,81,0.00,,,0.00,meteohub,2013-07-19 06:07:00,
2013-07-19 02:12:00,84.0,77.5,30.01,South,169,0.0,4.0,81,0.00,,,0.00,meteohub,2013-07-19 06:12:00,
2013-07-19 02:17:00,84.0,77.5,30.01,WNW,293,1.0,4.0,81,0.00,,,0.00,meteohub,2013-07-19 06:17:00,
2013-07-19 02:22:00,84.0,77.5,30.01,WSW,257,1.0,3.0,81,0.00,,,0.00,meteohub,2013-07-19 06:22:00,
2013-07-19 02:27:00,84.0,77.5,30.01,WNW,284,0.0,3.0,81,0.00,,,0.00,meteohub,2013-07-19 06:27:00,
2013-07-19 02:32:00,84.0,77.5,30.01,WNW,283,0.0,3.0,81,0.00,,,0.00,meteohub,2013-07-19 06:32:00,
2013-07-19 02:37:00,83.8,77.4,30.01,WNW,288,0.0,3.0,81,0.00,,,0.00,meteohub,2013-07-19 06:37:00,
2013-07-19 02:42:00,83.8,77.4,30.01,WNW,288,0.0,3.0,81,0.00,,,0.00,meteohub,2013-07-19 06:42:00,
2013-07-19 02:47:00,83.8,77.4,30.01,WNW,293,0.0,4.0,81,0.00,,,0.00,meteohub,2013-07-19 06:47:00,
2013-07-19 02:52:00,83.8,77.4,30.01,WNW,288,0.0,4.0,81,0.00,,,0.00,meteohub,2013-07-19 06:52:00,
2013-07-19 02:57:00,83.8,77.4,30.01,West,269,2.0,4.0,81,0.00,,,0.00,meteohub,2013-07-19 06:57:00,
2013-07-19 03:02:00,83.8,77.4,30.01,WNW,290,1.0,5.0,81,0.00,,,0.00,meteohub,2013-07-19 07:02:00,
2013-07-19 03:07:00,83.7,77.2,30.01,NW,304,2.0,5.0,81,0.00,,,0.00,meteohub,2013-07-19 07:07:00,
2013-07-19 03:11:00,83.7,77.2,30.01,WNW,300,1.0,5.0,81,0.00,,,0.00,meteohub,2013-07-19 07:11:00,
2013-07-19 03:16:00,83.5,77.0,30.01,West,266,0.0,5.0,81,0.00,,,0.00,meteohub,2013-07-19 07:16:00,
2013-07-19 03:21:00,83.5,77.4,30.01,WNW,290,2.0,5.0,82,0.00,,,0.00,meteohub,2013-07-19 07:21:00,
2013-07-19 03:26:00,83.3,77.2,30.01,West,281,3.0,5.0,82,0.00,,,0.00,meteohub,2013-07-19 07:26:00,
2013-07-19 03:31:00,83.1,77.0,30.01,SE,139,0.0,5.0,82,0.00,,,0.00,meteohub,2013-07-19 07:31:00,
2013-07-19 03:37:00,83.1,77.0,30.01,WNW,295,1.0,5.0,82,0.00,,,0.00,meteohub,2013-07-19 07:37:00,
2013-07-19 03:42:00,83.1,77.0,30.01,WNW,284,2.0,5.0,82,0.00,,,0.00,meteohub,2013-07-19 07:42:00,
2013-07-19 03:47:00,82.9,77.2,30.01,West,280,2.0,4.0,83,0.00,,,0.00,meteohub,2013-07-19 07:47:00,
2013-07-19 03:52:00,82.8,77.0,30.01,WNW,287,1.0,5.0,83,0.00,,,0.00,meteohub,2013-07-19 07:52:00,
2013-07-19 03:57:00,82.6,76.8,30.01,WNW,285,1.0,5.0,83,0.00,,,0.00,meteohub,2013-07-19 07:57:00,
2013-07-19 04:02:00,82.6,77.2,30.01,West,263,1.0,5.0,84,0.00,,,0.00,meteohub,2013-07-19 08:02:00,
2013-07-19 04:07:00,82.6,77.2,30.01,West,269,2.0,5.0,84,0.00,,,0.00,meteohub,2013-07-19 08:07:00,
2013-07-19 04:12:00,82.6,77.2,30.00,WNW,295,1.0,6.0,84,0.00,,,0.00,meteohub,2013-07-19 08:12:00,
2013-07-19 04:17:00,82.6,77.2,30.00,WNW,290,5.0,6.0,84,0.00,,,0.00,meteohub,2013-07-19 08:17:00,
2013-07-19 04:22:00,82.4,77.0,30.00,WNW,295,0.0,6.0,84,0.00,,,0.00,meteohub,2013-07-19 08:22:00,
2013-07-19 04:27:00,82.2,76.8,30.00,WNW,296,2.0,6.0,84,0.00,,,0.00,meteohub,2013-07-19 08:27:00,
2013-07-19 04:32:00,82.2,76.8,30.00,WNW,283,0.0,6.0,84,0.00,,,0.00,meteohub,2013-07-19 08:32:00,
2013-07-19 04:37:00,82.0,76.6,30.00,WNW,283,0.0,4.0,84,0.00,,,0.00,meteohub,2013-07-19 08:37:00,
2013-07-19 04:42:00,81.9,76.8,30.00,West,281,1.0,4.0,85,0.00,,,0.00,meteohub,2013-07-19 08:42:00,
2013-07-19 04:47:00,81.9,76.8,30.00,West,281,0.0,1.0,85,0.00,,,0.00,meteohub,2013-07-19 08:47:00,
2013-07-19 04:52:00,81.9,76.8,30.00,West,272,1.0,4.0,85,0.00,,,0.00,meteohub,2013-07-19 08:52:00,
2013-07-19 04:57:00,81.7,77.0,30.00,West,278,0.0,4.0,86,0.00,,,0.00,meteohub,2013-07-19 08:57:00,
2013-07-19 05:02:00,81.7,77.0,30.00,West,275,2.0,4.0,86,0.00,,,0.00,meteohub,2013-07-19 09:02:00,
2013-07-19 05:07:00,81.5,76.8,30.00,WNW,296,0.0,3.0,86,0.00,,,0.00,meteohub,2013-07-19 09:07:00,
2013-07-19 05:12:00,81.3,76.6,30.00,WNW,301,0.0,2.0,86,0.00,,,0.00,meteohub,2013-07-19 09:12:00,
2013-07-19 05:17:00,81.3,76.6,30.00,WNW,283,0.0,2.0,86,0.00,,,0.00,meteohub,2013-07-19 09:17:00,
2013-07-19 05:22:00,81.1,76.8,29.99,WNW,294,0.0,2.0,87,0.00,,,0.00,meteohub,2013-07-19 09:22:00,
2013-07-19 05:27:00,81.1,76.8,29.99,West,269,0.0,2.0,87,0.00,,,0.00,meteohub,2013-07-19 09:27:00,
2013-07-19 05:32:00,81.1,76.8,29.99,West,274,0.0,3.0,87,0.00,,,0.00,meteohub,2013-07-19 09:32:00,
2013-07-19 05:37:00,81.1,76.8,29.99,West,274,0.0,3.0,87,0.00,,,0.00,meteohub,2013-07-19 09:37:00,
2013-07-19 05:42:00,81.1,76.8,29.99,WNW,294,0.0,4.0,87,0.00,,,0.00,meteohub,2013-07-19 09:42:00,
2013-07-19 05:47:00,81.0,76.6,29.99,WNW,283,0.0,4.0,87,0.00,,,0.00,meteohub,2013-07-19 09:47:00,
2013-07-19 05:52:00,81.0,77.0,29.99,WNW,296,1.0,4.0,88,0.00,,,0.00,meteohub,2013-07-19 09:52:00,
2013-07-19 05:57:00,81.0,77.0,29.99,WNW,294,1.0,3.0,88,0.00,,,0.00,meteohub,2013-07-19 09:57:00,
2013-07-19 06:02:00,81.1,77.2,29.99,WNW,300,0.0,3.0,88,0.00,,,0.00,meteohub,2013-07-19 10:02:00,
2013-07-19 06:07:00,81.3,77.4,29.99,WNW,297,3.0,3.0,88,0.00,,,0.00,meteohub,2013-07-19 10:07:00,
2013-07-19 06:12:00,81.3,77.4,29.99,West,278,2.0,4.0,88,0.00,,,0.00,meteohub,2013-07-19 10:12:00,
2013-07-19 06:17:00,81.7,77.4,29.99,West,280,1.0,4.0,87,0.00,,,0.00,meteohub,2013-07-19 10:17:00,
2013-07-19 06:22:00,81.7,77.4,29.99,NW,308,1.0,4.0,87,0.00,,,0.00,meteohub,2013-07-19 10:22:00,
2013-07-19 06:27:00,81.7,77.4,29.99,WNW,283,0.0,4.0,87,0.00,,,0.00,meteohub,2013-07-19 10:27:00,
2013-07-19 06:32:00,81.9,77.5,29.99,West,281,3.0,4.0,87,0.00,,,0.00,meteohub,2013-07-19 10:32:00,
2013-07-19 06:37:00,81.9,77.5,29.99,WNW,293,1.0,4.0,87,0.00,,,0.00,meteohub,2013-07-19 10:37:00,
2013-07-19 06:42:00,81.9,77.5,29.99,WNW,298,1.0,4.0,87,0.00,,,0.00,meteohub,2013-07-19 10:42:00,
2013-07-19 06:47:00,82.0,77.7,29.98,West,278,1.0,4.0,87,0.00,,,0.00,meteohub,2013-07-19 10:47:00,
2013-07-19 06:52:00,82.0,77.7,29.99,West,279,2.0,4.0,87,0.00,,,0.00,meteohub,2013-07-19 10:52:00,
2013-07-19 06:57:00,82.2,77.9,29.99,WNW,291,3.0,4.0,87,0.00,,,0.00,meteohub,2013-07-19 10:57:00,
2013-07-19 07:02:00,82.2,77.9,29.99,West,280,0.0,4.0,87,0.00,,,0.00,meteohub,2013-07-19 11:02:00,
2013-07-19 07:07:00,82.4,78.1,29.99,South,173,0.0,4.0,87,0.00,,,0.00,meteohub,2013-07-19 11:07:00,
2013-07-19 07:12:00,82.6,78.3,29.99,SSW,201,0.0,4.0,87,0.00,,,0.00,meteohub,2013-07-19 11:12:00,
2013-07-19 07:17:00,82.6,78.3,29.99,WSW,248,1.0,4.0,87,0.00,,,0.00,meteohub,2013-07-19 11:17:00,
2013-07-19 07:22:00,82.8,78.4,29.99,WNW,283,0.0,6.0,87,0.00,,,0.00,meteohub,2013-07-19 11:22:00,
2013-07-19 07:27:00,82.9,78.6,29.99,WNW,293,0.0,6.0,87,0.00,,,0.00,meteohub,2013-07-19 11:27:00,
2013-07-19 07:32:00,82.9,78.6,29.99,NW,309,2.0,6.0,87,0.00,,,0.00,meteohub,2013-07-19 11:32:00,
2013-07-19 07:37:00,83.3,78.6,29.99,WNW,295,1.0,7.0,86,0.00,,,0.00,meteohub,2013-07-19 11:37:00,
2013-07-19 07:42:00,83.7,79.0,29.99,WNW,301,2.0,7.0,86,0.00,,,0.00,meteohub,2013-07-19 11:42:00,
2013-07-19 07:47:00,83.7,79.0,29.99,WNW,288,6.0,7.0,86,0.00,,,0.00,meteohub,2013-07-19 11:47:00,
2013-07-19 07:53:00,83.8,78.8,29.99,West,281,3.0,6.0,85,0.00,,,0.00,meteohub,2013-07-19 11:53:00,
2013-07-19 07:58:00,83.8,78.8,29.99,West,279,2.0,6.0,85,0.00,,,0.00,meteohub,2013-07-19 11:58:00,
2013-07-19 08:03:00,84.0,79.0,30.00,WNW,302,3.0,6.0,85,0.00,,,0.00,meteohub,2013-07-19 12:03:00,
2013-07-19 08:08:00,84.0,79.0,29.99,WNW,283,4.0,7.0,85,0.00,,,0.00,meteohub,2013-07-19 12:08:00,
2013-07-19 08:13:00,84.2,79.2,30.00,NNW,335,1.0,7.0,85,0.00,,,0.00,meteohub,2013-07-19 12:13:00,
2013-07-19 08:18:00,84.4,79.0,30.00,WNW,291,2.0,8.0,84,0.00,,,0.00,meteohub,2013-07-19 12:18:00,
2013-07-19 08:23:00,84.6,79.2,30.00,WNW,292,2.0,8.0,84,0.00,,,0.00,meteohub,2013-07-19 12:23:00,
2013-07-19 08:28:00,84.7,79.0,29.99,NNW,328,4.0,8.0,83,0.00,,,0.00,meteohub,2013-07-19 12:28:00,
2013-07-19 08:33:00,85.1,79.3,29.99,NW,324,3.0,8.0,83,0.00,,,0.00,meteohub,2013-07-19 12:33:00,
2013-07-19 08:38:00,85.3,79.5,29.99,WNW,300,3.0,8.0,83,0.00,,,0.00,meteohub,2013-07-19 12:38:00,
2013-07-19 08:43:00,85.5,79.3,30.00,WNW,296,5.0,8.0,82,0.00,,,0.00,meteohub,2013-07-19 12:43:00,
2013-07-19 08:48:00,85.5,79.3,29.99,NW,308,1.0,8.0,82,0.00,,,0.00,meteohub,2013-07-19 12:48:00,
2013-07-19 08:53:00,85.8,79.7,29.99,South,172,0.0,8.0,82,0.00,,,0.00,meteohub,2013-07-19 12:53:00,
2013-07-19 08:58:00,86.2,79.7,30.00,NW,306,3.0,8.0,81,0.00,,,0.00,meteohub,2013-07-19 12:58:00,
2013-07-19 09:03:00,86.4,79.9,29.99,NW,308,2.0,7.0,81,0.00,,,0.00,meteohub,2013-07-19 13:03:00,
2013-07-19 09:08:00,86.7,80.2,29.99,SSW,207,0.0,7.0,81,0.00,,,0.00,meteohub,2013-07-19 13:08:00,
2013-07-19 09:13:00,87.1,80.2,29.99,NW,307,3.0,7.0,80,0.00,,,0.00,meteohub,2013-07-19 13:13:00,
2013-07-19 09:18:00,87.1,79.3,29.99,WNW,285,5.0,8.0,78,0.00,,,0.00,meteohub,2013-07-19 13:18:00,
2013-07-19 09:23:00,87.3,79.9,29.99,WNW,295,3.0,10.0,79,0.00,,,0.00,meteohub,2013-07-19 13:23:00,
2013-07-19 09:26:00,87.4,80.1,29.99,SSE,160,2.0,10.0,79,0.00,,,0.00,meteohub,2013-07-19 13:26:00,
2013-07-19 09:31:00,87.6,79.9,29.99,NW,312,1.0,10.0,78,0.00,,,0.00,meteohub,2013-07-19 13:31:00,
2013-07-19 09:36:00,87.6,79.5,29.99,SW,221,0.0,8.0,77,0.00,,,0.00,meteohub,2013-07-19 13:36:00,
2013-07-19 09:41:00,88.0,79.9,29.99,WNW,302,2.0,8.0,77,0.00,,,0.00,meteohub,2013-07-19 13:41:00,
2013-07-19 09:46:00,88.0,79.9,29.99,WNW,295,4.0,8.0,77,0.00,,,0.00,meteohub,2013-07-19 13:46:00,
2013-07-19 09:51:00,88.2,79.2,29.99,WNW,288,7.0,8.0,75,0.00,,,0.00,meteohub,2013-07-19 13:51:00,
2013-07-19 09:56:00,88.5,80.4,29.99,NNW,342,1.0,9.0,77,0.00,,,0.00,meteohub,2013-07-19 13:56:00,
2013-07-19 10:01:00,88.7,80.2,29.99,WNW,287,4.0,9.0,76,0.00,,,0.00,meteohub,2013-07-19 14:01:00,
2013-07-19 10:06:00,89.1,80.4,29.98,WNW,295,3.0,9.0,76,0.00,,,0.00,meteohub,2013-07-19 14:06:00,
2013-07-19 10:11:00,89.1,80.1,29.98,SW,218,2.0,9.0,75,0.00,,,0.00,meteohub,2013-07-19 14:11:00,
2013-07-19 10:16:00,89.4,80.4,29.98,SSW,210,0.0,8.0,75,0.00,,,0.00,meteohub,2013-07-19 14:16:00,
2013-07-19 10:21:00,90.3,80.4,29.98,WNW,290,3.0,7.0,73,0.00,,,0.00,meteohub,2013-07-19 14:21:00,
2013-07-19 10:26:00,90.7,80.8,29.98,WSW,244,0.0,6.0,73,0.00,,,0.00,meteohub,2013-07-19 14:26:00,
2013-07-19 10:31:00,91.2,81.0,29.98,WSW,255,3.0,6.0,72,0.00,,,0.00,meteohub,2013-07-19 14:31:00,
2013-07-19 10:36:00,91.0,79.5,29.98,West,278,3.0,7.0,69,0.00,,,0.00,meteohub,2013-07-19 14:36:00,
2013-07-19 10:41:00,91.0,79.9,29.98,NW,316,2.0,7.0,70,0.00,,,0.00,meteohub,2013-07-19 14:41:00,
2013-07-19 10:46:00,90.9,79.7,29.98,NW,312,2.0,9.0,70,0.00,,,0.00,meteohub,2013-07-19 14:46:00,
2013-07-19 10:51:00,91.2,80.1,29.97,SSW,193,1.0,9.0,70,0.00,,,0.00,meteohub,2013-07-19 14:51:00,
2013-07-19 10:56:00,91.8,79.7,29.97,WNW,288,2.0,10.0,68,0.00,,,0.00,meteohub,2013-07-19 14:56:00,
2013-07-19 11:01:00,91.8,79.7,29.97,West,267,3.0,10.0,68,0.00,,,0.00,meteohub,2013-07-19 15:01:00,
2013-07-19 11:06:00,91.9,79.9,29.97,SSW,198,1.0,10.0,68,0.00,,,0.00,meteohub,2013-07-19 15:06:00,
2013-07-19 11:11:00,92.3,79.7,29.97,SE,134,1.0,10.0,67,0.00,,,0.00,meteohub,2013-07-19 15:11:00,
2013-07-19 11:16:00,93.0,80.4,29.97,WNW,284,2.0,10.0,67,0.00,,,0.00,meteohub,2013-07-19 15:16:00,
2013-07-19 11:21:00,93.4,79.9,29.97,WNW,295,2.0,9.0,65,0.00,,,0.00,meteohub,2013-07-19 15:21:00,
2013-07-19 11:26:00,93.4,80.2,29.97,SSW,204,3.0,8.0,66,0.00,,,0.00,meteohub,2013-07-19 15:26:00,
2013-07-19 11:31:00,93.2,80.1,29.97,West,278,2.0,10.0,66,0.00,,,0.00,meteohub,2013-07-19 15:31:00,
2013-07-19 11:36:00,93.9,79.9,29.97,WNW,291,0.0,10.0,64,0.00,,,0.00,meteohub,2013-07-19 15:36:00,
2013-07-19 11:41:00,94.5,79.9,29.96,WNW,288,8.0,10.0,63,0.00,,,0.00,meteohub,2013-07-19 15:41:00,
2013-07-19 11:46:00,94.5,80.4,29.96,SW,218,3.0,10.0,64,0.00,,,0.00,meteohub,2013-07-19 15:46:00,
2013-07-19 11:51:00,94.5,79.9,29.96,West,279,7.0,13.0,63,0.00,,,0.00,meteohub,2013-07-19 15:51:00,
2013-07-19 11:56:00,93.7,79.2,29.96,NNW,347,1.0,13.0,63,0.00,,,0.00,meteohub,2013-07-19 15:56:00,
2013-07-19 12:01:00,93.7,80.2,29.96,WNW,300,2.0,13.0,65,0.00,,,0.00,meteohub,2013-07-19 16:01:00,
2013-07-19 12:06:00,94.1,80.6,29.96,SSE,150,3.0,12.0,65,0.00,,,0.00,meteohub,2013-07-19 16:06:00,
2013-07-19 12:11:00,94.5,79.9,29.96,West,278,6.0,12.0,63,0.00,,,0.00,meteohub,2013-07-19 16:11:00,
2013-07-19 12:16:00,93.9,79.9,29.95,West,274,3.0,9.0,64,0.00,,,0.00,meteohub,2013-07-19 16:16:00,
2013-07-19 12:21:00,94.5,79.9,29.95,West,274,2.0,8.0,63,0.00,,,0.00,meteohub,2013-07-19 16:21:00,
2013-07-19 12:26:00,94.5,79.9,29.95,NW,312,5.0,12.0,63,0.00,,,0.00,meteohub,2013-07-19 16:26:00,
2013-07-19 12:31:00,94.6,79.2,29.95,NW,307,5.0,12.0,61,0.00,,,0.00,meteohub,2013-07-19 16:31:00,
2013-07-19 12:36:00,93.9,79.0,29.95,WNW,293,5.0,12.0,62,0.00,,,0.00,meteohub,2013-07-19 16:36:00,
2013-07-19 12:41:00,93.9,79.0,29.95,WNW,295,3.0,11.0,62,0.00,,,0.00,meteohub,2013-07-19 16:41:00,
2013-07-19 12:46:00,94.6,79.2,29.94,NNW,335,5.0,11.0,61,0.00,,,0.00,meteohub,2013-07-19 16:46:00,
2013-07-19 12:51:00,94.3,78.3,29.94,NNW,335,3.0,13.0,60,0.00,,,0.00,meteohub,2013-07-19 16:51:00,
2013-07-19 12:57:00,94.3,78.8,29.94,WNW,290,7.0,14.0,61,0.00,,,0.00,meteohub,2013-07-19 16:57:00,
2013-07-19 13:02:00,94.1,79.2,29.94,WNW,285,5.0,14.0,62,0.00,,,0.00,meteohub,2013-07-19 17:02:00,
2013-07-19 13:07:00,95.2,79.2,29.94,SE,131,4.0,14.0,60,0.00,,,0.00,meteohub,2013-07-19 17:07:00,
2013-07-19 13:12:00,96.1,79.0,29.94,WNW,288,7.0,12.0,58,0.00,,,0.00,meteohub,2013-07-19 17:12:00,
2013-07-19 13:17:00,95.7,78.1,29.94,SE,131,1.0,10.0,57,0.00,,,0.00,meteohub,2013-07-19 17:17:00,
2013-07-19 13:22:00,95.7,77.5,29.93,NW,323,2.0,10.0,56,0.00,,,0.00,meteohub,2013-07-19 17:22:00,
2013-07-19 13:27:00,96.1,78.4,29.93,NNW,327,2.0,10.0,57,0.00,,,0.00,meteohub,2013-07-19 17:27:00,
2013-07-19 13:32:00,96.4,77.5,29.93,NW,308,1.0,10.0,55,0.00,,,0.00,meteohub,2013-07-19 17:32:00,
2013-07-19 13:37:00,96.4,78.1,29.93,NW,307,5.0,10.0,56,0.00,,,0.00,meteohub,2013-07-19 17:37:00,
2013-07-19 13:42:00,96.6,78.3,29.92,SW,214,1.0,11.0,56,0.00,,,0.00,meteohub,2013-07-19 17:42:00,
2013-07-19 13:47:00,97.3,77.9,29.92,NW,308,6.0,11.0,54,0.00,,,0.00,meteohub,2013-07-19 17:47:00,
2013-07-19 13:52:00,96.4,77.0,29.92,NW,319,2.0,11.0,54,0.00,,,0.00,meteohub,2013-07-19 17:52:00,
2013-07-19 13:57:00,96.4,78.1,29.92,NNW,339,7.0,12.0,56,0.00,,,0.00,meteohub,2013-07-19 17:57:00,
2013-07-19 14:02:00,95.5,77.4,29.92,WNW,302,5.0,12.0,56,0.00,,,0.00,meteohub,2013-07-19 18:02:00,
2013-07-19 14:07:00,95.7,77.5,29.92,East,94,1.0,12.0,56,0.00,,,0.00,meteohub,2013-07-19 18:07:00,
2013-07-19 14:12:00,95.7,77.0,29.91,West,280,5.0,11.0,55,0.00,,,0.00,meteohub,2013-07-19 18:12:00,
2013-07-19 14:17:00,95.5,77.4,29.91,NW,308,7.0,13.0,56,0.00,,,0.00,meteohub,2013-07-19 18:17:00,
2013-07-19 14:22:00,95.2,77.5,29.91,WNW,295,4.0,13.0,57,0.00,,,0.00,meteohub,2013-07-19 18:22:00,
2013-07-19 14:27:00,95.5,77.9,29.91,WNW,295,2.0,13.0,57,0.00,,,0.00,meteohub,2013-07-19 18:27:00,
2013-07-19 14:32:00,96.1,77.9,29.91,NW,312,3.0,12.0,56,0.00,,,0.00,meteohub,2013-07-19 18:32:00,
2013-07-19 14:37:00,96.1,78.4,29.90,NW,314,1.0,12.0,57,0.00,,,0.00,meteohub,2013-07-19 18:37:00,
2013-07-19 14:42:00,96.1,79.0,29.90,WNW,297,4.0,9.0,58,0.00,,,0.00,meteohub,2013-07-19 18:42:00,
2013-07-19 14:47:00,96.3,78.6,29.90,West,267,1.0,9.0,57,0.00,,,0.00,meteohub,2013-07-19 18:47:00,
2013-07-19 14:52:00,96.8,77.4,29.90,West,271,4.0,9.0,54,0.00,,,0.00,meteohub,2013-07-19 18:52:00,
2013-07-19 14:57:00,97.0,78.1,29.90,WSW,252,2.0,12.0,55,0.00,,,0.00,meteohub,2013-07-19 18:57:00,
2013-07-19 15:02:00,96.4,77.5,29.89,ENE,74,1.0,12.0,55,0.00,,,0.00,meteohub,2013-07-19 19:02:00,
2013-07-19 15:07:00,96.1,77.9,29.89,West,267,6.0,13.0,56,0.00,,,0.00,meteohub,2013-07-19 19:07:00,
2013-07-19 15:12:00,96.3,78.1,29.89,WNW,295,3.0,13.0,56,0.00,,,0.00,meteohub,2013-07-19 19:12:00,
2013-07-19 15:17:00,96.3,77.5,29.89,NNW,330,2.0,13.0,55,0.00,,,0.00,meteohub,2013-07-19 19:17:00,
2013-07-19 15:22:00,96.4,77.0,29.89,NW,304,4.0,15.0,54,0.00,,,0.00,meteohub,2013-07-19 19:22:00,
2013-07-19 15:27:00,96.3,76.8,29.88,WNW,288,3.0,16.0,54,0.00,,,0.00,meteohub,2013-07-19 19:27:00,
2013-07-19 15:32:00,95.7,77.5,29.88,SE,128,2.0,16.0,56,0.00,,,0.00,meteohub,2013-07-19 19:32:00,
2013-07-19 15:37:00,95.9,77.2,29.88,WNW,298,7.0,16.0,55,0.00,,,0.00,meteohub,2013-07-19 19:37:00,
2013-07-19 15:42:00,96.4,78.1,29.88,WNW,296,2.0,13.0,56,0.00,,,0.00,meteohub,2013-07-19 19:42:00,
2013-07-19 15:47:00,97.3,77.9,29.88,WNW,300,7.0,13.0,54,0.00,,,0.00,meteohub,2013-07-19 19:47:00,
2013-07-19 15:52:00,97.2,77.2,29.88,WNW,295,7.0,13.0,53,0.00,,,0.00,meteohub,2013-07-19 19:52:00,
2013-07-19 15:57:00,97.2,77.7,29.88,SW,232,1.0,11.0,54,0.00,,,0.00,meteohub,2013-07-19 19:57:00,
2013-07-19 16:02:00,97.3,77.9,29.87,SSE,158,3.0,11.0,54,0.00,,,0.00,meteohub,2013-07-19 20:02:00,
2013-07-19 16:07:00,97.9,76.6,29.87,WNW,298,0.0,8.0,51,0.00,,,0.00,meteohub,2013-07-19 20:07:00,
2013-07-19 16:12:00,97.5,76.3,29.87,WSW,256,8.0,12.0,51,0.00,,,0.00,meteohub,2013-07-19 20:12:00,
2013-07-19 16:17:00,97.5,76.3,29.87,NNW,345,2.0,12.0,51,0.00,,,0.00,meteohub,2013-07-19 20:17:00,
2013-07-19 16:22:00,97.3,76.8,29.86,WNW,294,3.0,12.0,52,0.00,,,0.00,meteohub,2013-07-19 20:22:00,
2013-07-19 16:27:00,97.3,76.1,29.87,NW,307,4.0,11.0,51,0.00,,,0.00,meteohub,2013-07-19 20:27:00,
2013-07-19 16:32:00,97.3,76.8,29.86,SW,217,6.0,11.0,52,0.00,,,0.00,meteohub,2013-07-19 20:32:00,
2013-07-19 16:37:00,97.5,77.0,29.86,WNW,295,4.0,11.0,52,0.00,,,0.00,meteohub,2013-07-19 20:37:00,
2013-07-19 16:42:00,97.7,75.9,29.86,NNW,337,3.0,11.0,50,0.00,,,0.00,meteohub,2013-07-19 20:42:00,
2013-07-19 16:47:00,97.7,75.9,29.86,SW,234,2.0,11.0,50,0.00,,,0.00,meteohub,2013-07-19 20:47:00,
2013-07-19 16:52:00,97.5,75.7,29.86,West,264,2.0,11.0,50,0.00,,,0.00,meteohub,2013-07-19 20:52:00,
2013-07-19 16:57:00,97.3,75.0,29.86,WNW,295,5.0,11.0,49,0.00,,,0.00,meteohub,2013-07-19 20:57:00,
2013-07-19 17:02:00,96.8,75.7,29.86,NNW,343,2.0,12.0,51,0.00,,,0.00,meteohub,2013-07-19 21:02:00,
2013-07-19 17:07:00,96.8,75.7,29.86,NW,308,6.0,12.0,51,0.00,,,0.00,meteohub,2013-07-19 21:07:00,
2013-07-19 17:12:00,96.8,75.7,29.85,West,281,7.0,12.0,51,0.00,,,0.00,meteohub,2013-07-19 21:12:00,
2013-07-19 17:17:00,97.3,77.9,29.85,SE,145,5.0,11.0,54,0.00,,,0.00,meteohub,2013-07-19 21:17:00,
2013-07-19 17:22:00,97.2,78.8,29.85,WSW,238,3.0,12.0,56,0.00,,,0.00,meteohub,2013-07-19 21:22:00,
2013-07-19 17:27:00,97.2,78.8,29.85,West,262,1.0,12.0,56,0.00,,,0.00,meteohub,2013-07-19 21:27:00,
2013-07-19 17:32:00,96.6,78.8,29.85,WNW,283,1.0,13.0,57,0.00,,,0.00,meteohub,2013-07-19 21:32:00,
2013-07-19 17:37:00,96.3,79.0,29.85,SSW,207,2.0,13.0,58,0.00,,,0.00,meteohub,2013-07-19 21:37:00,
2013-07-19 17:42:00,95.7,78.1,29.85,SE,134,3.0,13.0,57,0.00,,,0.00,meteohub,2013-07-19 21:42:00,
2013-07-19 17:47:00,95.5,78.4,29.84,East,100,2.0,12.0,58,0.00,,,0.00,meteohub,2013-07-19 21:47:00,
2013-07-19 17:52:00,95.7,78.1,29.85,WNW,298,2.0,12.0,57,0.00,,,0.00,meteohub,2013-07-19 21:52:00,
2013-07-19 17:57:00,95.4,78.3,29.85,West,267,5.0,12.0,58,0.00,,,0.00,meteohub,2013-07-19 21:57:00,
2013-07-19 18:02:00,95.5,78.4,29.85,SSE,163,2.0,9.0,58,0.00,,,0.00,meteohub,2013-07-19 22:02:00,
2013-07-19 18:07:00,95.4,78.3,29.85,SW,218,1.0,9.0,58,0.00,,,0.00,meteohub,2013-07-19 22:07:00,
2013-07-19 18:12:00,95.5,78.4,29.84,West,277,2.0,9.0,58,0.00,,,0.00,meteohub,2013-07-19 22:12:00,
2013-07-19 18:17:00,95.4,78.3,29.85,SSE,164,1.0,9.0,58,0.00,,,0.00,meteohub,2013-07-19 22:17:00,
2013-07-19 18:22:00,95.2,78.6,29.85,NNW,347,2.0,9.0,59,0.00,,,0.00,meteohub,2013-07-19 22:22:00,
2013-07-19 18:27:00,95.4,78.8,29.85,ESE,111,1.0,9.0,59,0.00,,,0.00,meteohub,2013-07-19 22:27:00,
2013-07-19 18:32:00,95.2,78.6,29.85,SSE,148,2.0,10.0,59,0.00,,,0.00,meteohub,2013-07-19 22:32:00,
2013-07-19 18:37:00,95.2,78.6,29.85,North,5,1.0,10.0,59,0.00,,,0.00,meteohub,2013-07-19 22:37:00,
2013-07-19 18:42:00,94.8,78.8,29.85,NW,318,0.0,10.0,60,0.00,,,0.00,meteohub,2013-07-19 22:42:00,
2013-07-19 18:47:00,94.6,78.1,29.85,NW,312,5.0,12.0,59,0.00,,,0.00,meteohub,2013-07-19 22:47:00,
2013-07-19 18:52:00,94.6,78.6,29.85,SW,233,1.0,12.0,60,0.00,,,0.00,meteohub,2013-07-19 22:52:00,
2013-07-19 18:57:00,94.8,78.8,29.84,WNW,295,4.0,12.0,60,0.00,,,0.00,meteohub,2013-07-19 22:57:00,
2013-07-19 19:02:00,94.5,78.4,29.85,East,98,2.0,10.0,60,0.00,,,0.00,meteohub,2013-07-19 23:02:00,
2013-07-19 19:07:00,93.9,77.9,29.85,SW,236,4.0,9.0,60,0.00,,,0.00,meteohub,2013-07-19 23:07:00,
2013-07-19 19:12:00,93.6,78.1,29.85,WNW,283,0.0,11.0,61,0.00,,,0.00,meteohub,2013-07-19 23:12:00,
2013-07-19 19:17:00,93.4,77.9,29.85,WNW,288,1.0,11.0,61,0.00,,,0.00,meteohub,2013-07-19 23:17:00,
2013-07-19 19:22:00,93.4,77.4,29.85,NW,316,0.0,11.0,60,0.00,,,0.00,meteohub,2013-07-19 23:22:00,
2013-07-19 19:27:00,93.4,76.8,29.85,West,267,5.0,9.0,59,0.00,,,0.00,meteohub,2013-07-19 23:27:00,
2013-07-19 19:32:00,93.0,76.6,29.85,West,278,2.0,10.0,59,0.00,,,0.00,meteohub,2013-07-19 23:32:00,
2013-07-19 19:37:00,92.8,76.8,29.85,WNW,298,1.0,10.0,60,0.00,,,0.00,meteohub,2013-07-19 23:37:00,
2013-07-19 19:42:00,92.7,76.8,29.85,SW,228,1.0,10.0,60,0.00,,,0.00,meteohub,2013-07-19 23:42:00,
2013-07-19 19:47:00,92.5,76.6,29.85,NW,307,0.0,8.0,60,0.00,,,0.00,meteohub,2013-07-19 23:47:00,
2013-07-19 19:52:00,92.3,76.8,29.85,WNW,295,2.0,8.0,61,0.00,,,0.00,meteohub,2013-07-19 23:52:00,
2013-07-19 19:57:00,92.1,76.6,29.85,WSW,250,1.0,8.0,61,0.00,,,0.00,meteohub,2013-07-19 23:57:00,
2013-07-19 20:02:00,91.9,76.6,29.85,West,276,2.0,8.0,61,0.00,,,0.00,meteohub,2013-07-20 00:02:00,
2013-07-19 20:07:00,91.9,76.6,29.86,WNW,302,3.0,6.0,61,0.00,,,0.00,meteohub,2013-07-20 00:07:00,
2013-07-19 20:12:00,91.9,76.6,29.86,SE,124,0.0,8.0,61,0.00,,,0.00,meteohub,2013-07-20 00:12:00,
2013-07-19 20:17:00,91.9,77.0,29.86,WNW,283,0.0,8.0,62,0.00,,,0.00,meteohub,2013-07-20 00:17:00,
2013-07-19 20:22:00,91.8,76.8,29.86,NW,309,1.0,8.0,62,0.00,,,0.00,meteohub,2013-07-20 00:22:00,
2013-07-19 20:27:00,91.6,76.6,29.86,SE,146,0.0,6.0,62,0.00,,,0.00,meteohub,2013-07-20 00:27:00,
2013-07-19 20:32:00,91.6,77.2,29.87,NW,309,2.0,5.0,63,0.00,,,0.00,meteohub,2013-07-20 00:32:00,
2013-07-19 20:37:00,91.4,77.5,29.87,South,188,1.0,5.0,64,0.00,,,0.00,meteohub,2013-07-20 00:37:00,
2013-07-19 20:42:00,91.2,77.4,29.88,WNW,287,1.0,6.0,64,0.00,,,0.00,meteohub,2013-07-20 00:42:00,
2013-07-19 20:47:00,91.2,77.7,29.88,WNW,287,1.0,8.0,65,0.00,,,0.00,meteohub,2013-07-20 00:47:00,
2013-07-19 20:52:00,91.0,77.5,29.88,South,173,1.0,8.0,65,0.00,,,0.00,meteohub,2013-07-20 00:52:00,
2013-07-19 20:57:00,90.9,77.9,29.88,West,273,0.0,9.0,66,0.00,,,0.00,meteohub,2013-07-20 00:57:00,
2013-07-19 21:02:00,90.7,77.7,29.88,ESE,108,1.0,9.0,66,0.00,,,0.00,meteohub,2013-07-20 01:02:00,
2013-07-19 21:07:00,90.5,77.5,29.88,West,276,2.0,9.0,66,0.00,,,0.00,meteohub,2013-07-20 01:07:00,
2013-07-19 21:12:00,90.3,77.9,29.88,SW,236,0.0,8.0,67,0.00,,,0.00,meteohub,2013-07-20 01:12:00,
2013-07-19 21:17:00,90.3,77.9,29.89,WNW,300,6.0,8.0,67,0.00,,,0.00,meteohub,2013-07-20 01:17:00,
2013-07-19 21:22:00,90.1,77.7,29.89,South,185,0.0,8.0,67,0.00,,,0.00,meteohub,2013-07-20 01:22:00,
2013-07-19 21:27:00,90.1,77.7,29.89,West,266,1.0,8.0,67,0.00,,,0.00,meteohub,2013-07-20 01:27:00,
2013-07-19 21:32:00,90.1,77.7,29.89,WNW,295,2.0,8.0,67,0.00,,,0.00,meteohub,2013-07-20 01:32:00,
2013-07-19 21:37:00,90.1,77.7,29.89,NW,308,2.0,4.0,67,0.00,,,0.00,meteohub,2013-07-20 01:37:00,
2013-07-19 21:42:00,90.1,78.1,29.89,WNW,292,4.0,4.0,68,0.00,,,0.00,meteohub,2013-07-20 01:42:00,
2013-07-19 21:47:00,89.6,78.1,29.89,WNW,294,6.0,7.0,69,0.00,,,0.00,meteohub,2013-07-20 01:47:00,
2013-07-19 21:52:00,89.1,78.4,29.88,NW,309,3.0,10.0,71,0.00,,,0.00,meteohub,2013-07-20 01:52:00,
2013-07-19 21:57:00,88.5,77.9,29.88,West,281,2.0,10.0,71,0.00,,,0.00,meteohub,2013-07-20 01:57:00,
2013-07-19 22:02:00,88.5,77.9,29.88,West,279,0.0,10.0,71,0.00,,,0.00,meteohub,2013-07-20 02:02:00,
2013-07-19 22:07:00,88.5,78.3,29.87,West,275,0.0,7.0,72,0.00,,,0.00,meteohub,2013-07-20 02:07:00,
2013-07-19 22:12:00,88.3,78.1,29.87,ESE,115,0.0,5.0,72,0.00,,,0.00,meteohub,2013-07-20 02:12:00,
2013-07-19 22:17:00,88.3,78.1,29.87,WNW,292,0.0,4.0,72,0.00,,,0.00,meteohub,2013-07-20 02:17:00,
2013-07-19 22:22:00,88.5,78.3,29.87,SE,127,0.0,4.0,72,0.00,,,0.00,meteohub,2013-07-20 02:22:00,
2013-07-19 22:27:00,88.5,77.9,29.86,NNW,345,3.0,4.0,71,0.00,,,0.00,meteohub,2013-07-20 02:27:00,
2013-07-19 22:32:00,88.7,78.1,29.86,South,177,0.0,8.0,71,0.00,,,0.00,meteohub,2013-07-20 02:32:00,
2013-07-19 22:37:00,88.7,77.7,29.86,SSW,204,2.0,8.0,70,0.00,,,0.00,meteohub,2013-07-20 02:37:00,
2013-07-19 22:42:00,88.7,77.7,29.85,West,277,1.0,8.0,70,0.00,,,0.00,meteohub,2013-07-20 02:42:00,
2013-07-19 22:48:00,88.7,77.7,29.84,SSE,153,1.0,8.0,70,0.00,,,0.00,meteohub,2013-07-20 02:48:00,
2013-07-19 22:53:00,88.5,77.9,29.84,South,173,1.0,7.0,71,0.00,,,0.00,meteohub,2013-07-20 02:53:00,
2013-07-19 22:58:00,88.3,77.7,29.84,SSE,157,0.0,6.0,71,0.00,,,0.00,meteohub,2013-07-20 02:58:00,
2013-07-19 23:03:00,88.3,77.7,29.84,WNW,298,2.0,5.0,71,0.00,,,0.00,meteohub,2013-07-20 03:03:00,
2013-07-19 23:08:00,88.3,77.7,29.85,WNW,291,1.0,5.0,71,0.00,,,0.00,meteohub,2013-07-20 03:08:00,
2013-07-19 23:13:00,88.2,77.5,29.85,SW,219,0.0,5.0,71,0.00,,,0.00,meteohub,2013-07-20 03:13:00,
2013-07-19 23:18:00,88.0,77.9,29.85,SSE,156,0.0,4.0,72,0.00,,,0.00,meteohub,2013-07-20 03:18:00,
2013-07-19 23:23:00,87.8,77.7,29.84,WSW,249,2.0,4.0,72,0.00,,,0.00,meteohub,2013-07-20 03:23:00,
2013-07-19 23:28:00,87.6,77.5,29.84,WSW,245,0.0,5.0,72,0.00,,,0.00,meteohub,2013-07-20 03:28:00,
2013-07-19 23:33:00,87.4,77.4,29.84,West,274,2.0,5.0,72,0.00,,,0.00,meteohub,2013-07-20 03:33:00,
2013-07-19 23:38:00,87.4,77.7,29.84,SW,226,2.0,8.0,73,0.00,,,0.00,meteohub,2013-07-20 03:38:00,
2013-07-19 23:43:00,87.3,77.5,29.84,West,268,0.0,8.0,73,0.00,,,0.00,meteohub,2013-07-20 03:43:00,
2013-07-19 23:48:00,87.1,77.4,29.85,East,100,0.0,8.0,73,0.00,,,0.00,meteohub,2013-07-20 03:48:00,
2013-07-19 23:53:00,86.9,77.2,29.85,SSW,201,0.0,6.0,73,0.00,,,0.00,meteohub,2013-07-20 03:53:00,
2013-07-19 23:58:00,86.7,77.4,29.85,SSE,164,3.0,3.0,74,0.00,,,0.00,meteohub,2013-07-20 03:58:00,